Location: Baix
(44.7118°N, 4.7648°E)
Time: 17:30:16
(UTC+00:00)

Cosmos 990 Rocket - Pass Details

Date: 07 August 2020
Orbit: 747 x 768 km, 74.0° (Epoch: 23 September)

Event Time Altitude Azimuth Distance (km) Brightness Sun altitude
Exits shadow 02:23:30 35° 193° (SSW) 1,219 4.6 -19.3°
Maximum altitude 02:25:47 82° 110° (ESE) 769 4.0 -19.1°
Drops below altitude 10° 02:30:58 10° 23° (NNE) 2,287 7.5 -18.5°
Sets 02:33:20 0° 22° (NNE) 3,213 8.6 -18.2°
